This is the latest recevied weather packets stored in our database for station/object W4UWO. If no packets are shown the sender has not sent any weather packets the latest 10 day(s).
| Time | Temp. | Humidity | Pressure | Rain* | Wind** | Luminosity | Snow |
|---|---|---|---|---|---|---|---|
| 1788300701 | 36.11° C | 37% | 1018.1 hPa | 0 mm | - | 258 W/m² | - |
| 1788300399 | 36.67° C | 37% | 1018.5 hPa | 0 mm | - | 277 W/m² | - |
| 1788300099 | 36.67° C | 36% | 1018.3 hPa | 0 mm | - | 295 W/m² | - |
| 1788299798 | 36.67° C | 36% | 1018.4 hPa | 0 mm | - | 311 W/m² | - |
| 1788299493 | 36.67° C | 36% | 1018.3 hPa | 0 mm | - | 332 W/m² | - |
| 1788299191 | 36.67° C | 35% | 1018.5 hPa | 0 mm | - | 343 W/m² | - |
| 1788298885 | 36.67° C | 35% | 1018.4 hPa | 0 mm | - | 361 W/m² | - |
| 1788298585 | 36.67° C | 36% | 1018.3 hPa | 0 mm | - | 382 W/m² | - |
| 1788298280 | 37.22° C | 35% | 1018.7 hPa | 0 mm | - | 414 W/m² | - |
| 1788297979 | 36.67° C | 37% | 1018.4 hPa | 0 mm | - | 429 W/m² | - |
| 1788297679 | 35.56° C | 38% | 1018.4 hPa | 0 mm | - | 420 W/m² | - |
| 1788297370 | 35.56° C | 40% | 1018.5 hPa | 0 mm | - | 193 W/m² | - |
| 1788297067 | 35.56° C | 39% | 1018.5 hPa | 0 mm | - | 468 W/m² | - |
| 1788296762 | 35.56° C | 38% | 1018.6 hPa | 0 mm | - | 114 W/m² | - |
| 1788296458 | 36.11° C | 38% | 1018.5 hPa | 0 mm | - | 104 W/m² | - |
| 1788296154 | 36.67° C | 39% | 1018.7 hPa | 0 mm | - | 520 W/m² | - |
| 1788295853 | 36.67° C | 37% | 1018.6 hPa | 0 mm | - | 537 W/m² | - |
| 1788295550 | 36.11° C | 39% | 1018.8 hPa | 0 mm | - | 513 W/m² | - |
| 1788295245 | 35.56° C | 40% | 1018.8 hPa | 0 mm | - | 107 W/m² | - |
| 1788294945 | 35.56° C | 39% | 1018.8 hPa | 0 mm | - | 130 W/m² | - |
| 1788294640 | 36.11° C | 39% | 1019 hPa | 0 mm | - | 146 W/m² | - |
| 1788294340 | 35.56° C | 39% | 1019 hPa | 0 mm | - | 646 W/m² | - |
| 1788294036 | 35.56° C | 39% | 1019 hPa | 0 mm | - | 658 W/m² | - |
| 1788293731 | 36.67° C | 38% | 1019.1 hPa | 0 mm | - | 131 W/m² | - |
| 1788293431 | 36.67° C | 38% | 1018.9 hPa | 0 mm | - | 271 W/m² | - |
* Rain latest hour (hover to see other rain measurements)
** Current wind speed in m/s (hover to see current wind gust speed)